Englewood, Florida, United States (34223)
Lat: 26.96N, Lon: 82.35W
Wx Zone: FLZ060
Local Info
Past Weather Observations for Saturday, August 30, 2014

NOTE: This archive is for the closest National Weather Service station to Englewood. Information may differ from the station used for current weather conditions.

Click here for Long-term Archive

Time Weather Temperature Dewpoint Humidity Pressure Winds Precip Visibility
23:53
Clear
77°F / 25°C 73°F / 23°C 89% 30.15 in
(1021 mb)
N 3.5 mph
(N 6 kph)
- 10SM
22:53
Clear
79°F / 26°C 73°F / 23°C 84% 30.15 in
(1021 mb)
ENE 3.5 mph
(ENE 6 kph)
- 10SM
21:53
Clear
79°F / 26°C 73°F / 23°C 84% 30.12 in
(1020 mb)
ENE 6.9 mph
(ENE 11 kph)
- 10SM
20:53
Clear
79°F / 26°C 73°F / 23°C 84% 30.12 in
(1020 mb)
NE 5.8 mph
(NE 9 kph)
- 10SM
19:53
Clear
81°F / 27°C 75°F / 24°C 84% 30.09 in
(1019 mb)
N 5.8 mph
(N 9 kph)
- 10SM
18:53
Partly Cloudy
82°F / 28°C 75°F / 24°C 79% 30.06 in
(1018 mb)
N 3.5 mph
(N 6 kph)
- 10SM
17:53
Clear
82°F / 28°C 73°F / 23°C 74% 30.06 in
(1018 mb)
Calm 0.01 in
(0.25 mm)
10SM
17:17
Clear
81°F / 27°C 73°F / 23°C 79% 30.06 in
(1018 mb)
Calm 0.01 in
(0.25 mm)
10SM
17:04
Partly Cloudy
Thunder Storms
81°F / 27°C 72°F / 22°C 74% 30.06 in
(1018 mb)
Calm - 10SM
16:53
Partly Cloudy
Thunder Storms
79°F / 26°C 73°F / 23°C 84% 30.06 in
(1018 mb)
Calm 0.02 in
(0.51 mm)
10SM
16:12
Partly Cloudy
Thunder Storms
93°F / 34°C 72°F / 22°C 49% 30.06 in
(1018 mb)
SE 12.7 mph
(SE 20 kph)
0.00 in
(0.00 mm)
10SM
16:02
Partly Cloudy
Thunder Storms
91°F / 33°C 73°F / 23°C 56% 30.04 in
(1017 mb)
SE 15 mph
(SE 24 kph)
0.00 in
(0.00 mm)
9SM
15:53
Clear
93°F / 34°C 75°F / 24°C 56% 30.04 in
(1017 mb)
SSE 6.9 mph
(SSE 11 kph)
0.00 in
(0.00 mm)
10SM
15:26
Mostly Cloudy
Thunder Storms
88°F / 31°C 75°F / 24°C 66% 30.04 in
(1017 mb)
SSE 9.2 mph
(SSE 15 kph)
0.00 in
(0.00 mm)
7SM
15:13
Mostly Cloudy
91°F / 33°C 75°F / 24°C 59% 30.04 in
(1017 mb)
SE 21.9 mph
(SE 35 kph)
0.00 in
(0.00 mm)
10SM
14:53
Mostly Cloudy
Thunder Storms
93°F / 34°C 77°F / 25°C 59% 30.04 in
(1017 mb)
ENE 6.9 mph
(ENE 11 kph)
0.00 in
(0.00 mm)
10SM
13:53
Partly Cloudy
93°F / 34°C 75°F / 24°C 56% 30.06 in
(1018 mb)
Variable 5.8 mph
(Variable 9 kph)
- 10SM
12:53
Partly Cloudy
91°F / 33°C 75°F / 24°C 59% 30.09 in
(1019 mb)
SE 8.1 mph
(SE 13 kph)
- 10SM
11:53
Partly Cloudy
91°F / 33°C 75°F / 24°C 59% 30.12 in
(1020 mb)
SE 10.4 mph
(SE 17 kph)
- 10SM
10:53
Partly Cloudy
90°F / 32°C 77°F / 25°C 67% 30.12 in
(1020 mb)
E 9.2 mph
(E 15 kph)
- 10SM
09:53
Partly Cloudy
88°F / 31°C 79°F / 26°C 75% 30.15 in
(1021 mb)
ESE 8.1 mph
(ESE 13 kph)
- 10SM
09:44
Partly Cloudy
88°F / 31°C 79°F / 26°C 75% 30.15 in
(1021 mb)
SE 6.9 mph
(SE 11 kph)
- 10SM
09:22
Mostly Cloudy
86°F / 30°C 79°F / 26°C 79% 30.15 in
(1021 mb)
ESE 9.2 mph
(ESE 15 kph)
- 10SM
08:53
Clear
84°F / 29°C 79°F / 26°C 84% 30.15 in
(1021 mb)
E 9.2 mph
(E 15 kph)
- 10SM
07:53
Clear
81°F / 27°C 77°F / 25°C 89% 30.12 in
(1020 mb)
E 5.8 mph
(E 9 kph)
- 10SM
06:53
Clear
75°F / 24°C 73°F / 23°C 94% 30.12 in
(1020 mb)
E 6.9 mph
(E 11 kph)
- 10SM
05:53
Clear
75°F / 24°C 73°F / 23°C 94% 30.12 in
(1020 mb)
ENE 6.9 mph
(ENE 11 kph)
- 10SM
04:53
Clear
75°F / 24°C 73°F / 23°C 94% 30.09 in
(1019 mb)
ENE 4.6 mph
(ENE 7 kph)
- 10SM
03:53
Clear
75°F / 24°C 73°F / 23°C 94% 30.09 in
(1019 mb)
NE 4.6 mph
(NE 7 kph)
- 10SM
02:53
Clear
75°F / 24°C 73°F / 23°C 94% 30.09 in
(1019 mb)
ENE 5.8 mph
(ENE 9 kph)
- 10SM
01:53
Clear
77°F / 25°C 73°F / 23°C 89% 30.09 in
(1019 mb)
Calm - 10SM
00:53
Clear
77°F / 25°C 73°F / 23°C 89% 30.09 in
(1019 mb)
E 5.8 mph
(E 9 kph)
- 10SM
Time Weather Temperature Dewpoint Humidity Pressure Winds Precip Visibility


Weather for websites

WeatherForYou.com, LLC is not responsible for any damages or problems caused by this service. Current weather conditions are obtained from the closest station including government and personal stations which may have varying degrees of accuracy. Weather forecasts are derived from the NOAA NDFD. Like all things, this site belongs to Jesus Christ... He just trusts me to maintain it. If you have any questions or comments email webmaster@weatherforyou.com

Copyright © 2014, WeatherForYou.com LLC. All rights reserved.